Date String (YYYY-MM-DD hh:mm:ss) UTC,Instrument flags,Ambient pressure (hPa),Sample flow (lpm),Bypass flow (lpm),Sample temperature (°C),Ambient temperature (°C),ASC tube jacket temperature (°C),LED temperature (°C),Box temperature (°C),Sample RH (%),Span deviation,Mass concentration (μg/m³),Mass concentration (μg/m³),Mass concentration (μg/m³)
DateTimeUTC,F1_M11,P_M11,Q1_M11,Q2_M11,T1_M11,T2_M11,T3_M11,T4_M11,T5_M11,U1_M11,ZSPAN_M11,X2_M11,X0_M11,X1_M11
2022-01-16 05:00:00,,0826.1,4.99,0.00,23.5,22.9,00.0,32.4,25.3,04.4,0000.0,0000.58,0001.00,0000.50
2022-01-16 05:01:00,,0826.1,5.01,0.00,23.5,22.8,00.0,32.4,25.2,04.4,0000.0,0000.55,0000.84,0000.48
2022-01-16 05:02:00,,0826.1,5.01,0.00,23.4,22.8,00.0,32.4,25.2,04.5,0000.0,0000.51,0000.74,0000.45
2022-01-16 05:03:00,,0826.1,4.99,0.00,23.4,22.8,00.0,32.4,25.2,04.8,0000.0,0000.50,0000.79,0000.45
2022-01-16 05:04:00,,0826.1,5.01,0.00,23.4,22.7,00.0,32.4,25.1,04.9,0000.0,0000.49,0000.79,0000.44
2022-01-16 05:05:00,,0826.1,4.99,0.00,23.4,22.6,00.0,32.4,25.1,04.9,0000.0,0000.49,0000.79,0000.44
2022-01-16 05:06:00,,0826.1,5.00,0.00,23.3,22.6,00.0,32.4,25.0,05.0,0000.0,0000.49,0000.78,0000.44
2022-01-16 05:07:00,,0826.0,5.01,0.00,23.3,22.5,00.0,32.4,25.0,05.0,0000.0,0000.49,0000.79,0000.43
2022-01-16 05:08:00,,0826.0,4.99,0.00,23.3,22.5,00.0,32.3,24.9,05.0,0000.0,0000.50,0000.77,0000.44
2022-01-16 05:09:00,,0826.0,5.01,0.00,23.2,22.4,00.0,32.3,24.9,05.0,0000.0,0000.49,0000.70,0000.43
2022-01-16 05:10:00,,0826.0,4.99,0.00,23.2,22.4,00.0,32.3,24.9,04.9,0000.0,0000.49,0000.71,0000.43
2022-01-16 05:11:00,,0826.0,5.01,0.00,23.2,22.4,00.0,32.3,24.9,04.9,0000.0,0000.50,0000.76,0000.43
2022-01-16 05:12:00,,0826.0,4.99,0.00,23.1,22.3,00.0,32.3,24.8,04.8,0000.0,0000.50,0000.75,0000.43
2022-01-16 05:13:00,,0825.8,5.01,0.00,23.1,22.3,00.0,32.3,24.8,04.9,0000.0,0000.50,0000.76,0000.43
2022-01-16 05:14:00,,0825.8,5.00,0.00,23.1,22.3,00.0,32.2,24.8,05.3,0000.0,0000.50,0000.68,0000.42
2022-01-16 05:15:00,,0825.7,4.99,0.00,23.1,22.3,00.0,32.2,24.8,05.3,0000.0,0000.49,0000.65,0000.41
2022-01-16 05:16:00,,0825.6,5.02,0.00,23.1,22.3,00.0,32.2,24.7,05.2,0000.0,0000.53,0000.75,0000.41
2022-01-16 05:17:00,,0825.5,4.99,0.00,23.1,22.3,00.0,32.2,24.8,05.0,0000.0,0000.55,0000.78,0000.42
2022-01-16 05:18:00,,0825.5,5.00,0.00,23.1,22.3,00.0,32.2,24.7,05.2,0000.0,0000.57,0000.83,0000.43
2022-01-16 05:19:00,,0825.5,5.02,0.00,23.0,22.3,00.0,32.2,24.8,04.9,0000.0,0000.59,0000.90,0000.42
2022-01-16 05:20:00,,0825.6,4.98,0.00,23.0,22.3,00.0,32.2,24.7,05.0,0000.0,0000.59,0000.90,0000.41
2022-01-16 05:21:00,,0825.5,5.01,0.00,23.0,22.3,00.0,32.1,24.7,05.1,0000.0,0000.59,0000.90,0000.41
2022-01-16 05:22:00,,0825.5,5.00,0.00,23.0,22.3,00.0,32.1,24.6,05.3,0000.0,0000.59,0000.89,0000.41
2022-01-16 05:23:00,,0825.4,4.99,0.00,23.0,22.3,00.0,32.1,24.6,05.2,0000.0,0000.59,0001.97,0000.42
2022-01-16 05:24:00,,0825.4,5.00,0.00,23.0,22.2,00.0,32.1,24.6,05.2,0000.0,0000.59,0002.25,0000.42
2022-01-16 05:25:00,,0825.5,5.02,0.00,23.0,22.2,00.0,32.1,24.7,05.3,0000.0,0000.60,0002.25,0000.42
2022-01-16 05:26:00,,0825.5,4.99,0.00,22.9,22.2,00.0,32.1,24.7,05.3,0000.0,0000.59,0002.25,0000.43
2022-01-16 05:27:00,,0825.5,4.99,0.00,22.9,22.1,00.0,32.0,24.6,05.1,0000.0,0000.55,0002.16,0000.43
2022-01-16 05:28:00,,0825.5,5.00,0.00,22.9,22.1,00.0,32.0,24.6,05.2,0000.0,0000.54,0002.14,0000.42
2022-01-16 05:29:00,,0825.5,5.00,0.00,22.9,22.0,00.0,32.0,24.6,05.3,0000.0,0000.52,0002.07,0000.43
2022-01-16 05:30:00,,0825.5,5.01,0.00,22.9,22.0,00.0,32.0,24.5,05.0,0000.0,0000.50,0002.26,0000.43
2022-01-16 05:31:00,,0825.5,4.99,0.00,22.8,22.0,00.0,32.0,24.4,05.1,0000.0,0000.52,0002.78,0000.45
2022-01-16 05:32:00,,0825.5,5.00,0.00,22.8,22.0,00.0,31.9,24.4,05.3,0000.0,0000.52,0002.78,0000.46
2022-01-16 05:33:00,,0825.5,5.00,0.00,22.8,22.0,00.0,31.9,24.4,05.4,0000.0,0000.52,0002.75,0000.46
2022-01-16 05:34:00,,0825.6,4.99,0.00,22.8,21.9,00.0,31.9,24.3,05.3,0000.0,0000.52,0001.59,0000.47
2022-01-16 05:35:00,,0825.6,5.01,0.00,22.7,21.9,00.0,31.9,24.3,05.4,0000.0,0000.52,0001.40,0000.47
2022-01-16 05:36:00,,0825.6,5.00,0.00,22.7,21.9,00.0,31.9,24.3,05.1,0000.0,0000.52,0001.38,0000.47
2022-01-16 05:37:00,,0825.7,5.01,0.00,22.7,21.9,00.0,31.9,24.3,05.4,0000.0,0000.51,0001.36,0000.47
2022-01-16 05:38:00,,0825.8,4.99,0.00,22.7,21.9,00.0,31.9,24.3,05.1,0000.0,0000.50,0001.34,0000.47
2022-01-16 05:39:00,,0825.9,4.99,0.00,22.7,21.9,00.0,31.8,24.4,05.4,0000.0,0000.53,0001.37,0000.48
2022-01-16 05:40:00,,0826.0,5.01,0.00,22.7,21.9,00.0,31.8,24.4,05.6,0000.0,0000.53,0001.39,0000.48
2022-01-16 05:41:00,,0826.0,4.99,0.00,22.7,22.0,00.0,31.8,24.4,05.8,0000.0,0000.54,0001.15,0000.48
2022-01-16 05:42:00,,0826.1,5.00,0.00,22.8,22.0,00.0,31.8,24.4,05.8,0000.0,0000.54,0000.68,0000.47
2022-01-16 05:43:00,,0826.1,5.01,0.00,22.8,22.0,00.0,31.8,24.5,05.8,0000.0,0000.55,0000.94,0000.47
2022-01-16 05:44:00,,0826.2,4.99,0.00,22.8,22.1,00.0,31.9,24.6,05.9,0000.0,0000.56,0001.16,0000.47
2022-01-16 05:45:00,,0826.1,5.01,0.00,22.8,22.1,00.0,31.9,24.6,05.9,0000.0,0000.60,0001.23,0000.50
2022-01-16 05:46:00,,0826.2,5.01,0.00,22.9,22.2,00.0,31.9,24.7,05.7,0000.0,0000.64,0001.28,0000.53
2022-01-16 05:47:00,,0826.2,5.01,0.00,22.9,22.2,00.0,31.9,24.7,05.7,0000.0,0000.70,0001.37,0000.58
2022-01-16 05:48:00,,0826.2,4.98,0.00,22.9,22.2,00.0,31.9,24.7,05.5,0000.0,0000.78,0001.50,0000.63
2022-01-16 05:49:00,,0826.2,5.02,0.00,22.9,22.3,00.0,31.9,24.7,05.4,0000.0,0000.84,0001.59,0000.70
2022-01-16 05:50:00,,0826.1,4.98,0.00,22.9,22.3,00.0,31.9,24.7,05.4,0000.0,0000.87,0001.61,0000.74
2022-01-16 05:51:00,,0826.2,5.01,0.00,22.9,22.3,00.0,31.9,24.8,05.4,0000.0,0000.94,0001.70,0000.79
2022-01-16 05:52:00,,0826.2,4.99,0.00,23.0,22.3,00.0,31.9,24.8,05.5,0000.0,0001.02,0001.80,0000.88
2022-01-16 05:53:00,,0826.2,5.01,0.00,23.0,22.3,00.0,31.9,24.8,05.1,0000.0,0001.10,0001.92,0000.95
2022-01-16 05:54:00,,0826.2,4.99,0.00,23.0,22.4,00.0,31.9,24.9,04.9,0000.0,0001.17,0001.91,0001.00
2022-01-16 05:55:00,,0826.2,5.01,0.00,23.0,22.4,00.0,31.9,24.8,04.7,0000.0,0001.27,0001.78,0001.07
2022-01-16 05:56:00,,0826.2,5.00,0.00,23.0,22.4,00.0,31.9,24.8,04.6,0000.0,0001.30,0001.83,0001.09
2022-01-16 05:57:00,,0826.1,4.99,0.00,23.0,22.4,00.0,32.0,24.8,04.6,0000.0,0001.30,0001.84,0001.09
2022-01-16 05:58:00,,0826.1,5.00,0.00,23.0,22.4,00.0,32.0,24.9,04.3,0000.0,0001.27,0001.79,0001.07
2022-01-16 05:59:00,,0826.1,5.00,0.00,23.0,22.4,00.0,32.0,24.9,04.3,0000.0,0001.25,0001.75,0001.04
